User: anonymous   Login
Location: Vancouver
(49.2500°N, 123.1330°W)
Time: 09:52:40
(UTC-07:00)
Language:

JAS-1B - Orbit

View from above orbital plane
View from above orbital plane
View from above satellite
View from above satellite

Ground track
Ground track

The orbit data is extracted from the following two-line orbital elements,

1 20480U 90013C   14296.82953720  .00000038  00000-0  15030-3 0  8829
2 20480 099.0625 235.8556 0540860 062.5086 357.2142 12.83397446157634
Epoch (UTC): 23 October 2014 19:54:32
Eccentricity: 0.0540860
inclination: 99.0625°
perigee height: 911 km
apogee height: 1744 km
right ascension of ascending node: 235.8556°
argument of perigee: 62.5086°
revolutions per day: 12.83397446
mean anomaly at epoch: 357.2142°
orbit number at epoch: 15763

The dashed part of the orbit path shows where the satellite is in the earth's shadow,  

DLR